Regional Weather Roundup
Issued by NWS Little Rock, AR

Home | Current Version | Previous Version | Graphics & Text | Print | Product List | Glossary On
Versions: 1 2 3 4 5 6 7 8 9 10 11 12 13 14 15 16 17 18 19 20 21 22 23 24 25 26 27 28 29 30 31 32 33 34 35 36 37 38 39 40 41 42 43 44 45 46 47 48 49 50
097
ASUS44 KLZK 262005
RWRLZK

WEATHER ROUNDUP FOR ARKANSAS
NATIONAL WEATHER SERVICE LITTLE ROCK AR
200 PM CST SUN FEB 26 2017

NOTE: "FAIR" INDICATES FEW OR NO CLOUDS BELOW 12,000 FEET WITH NO
SIGNIFICANT WEATHER AND/OR OBSTRUCTIONS TO VISIBILITY.

ARZ001-003-010-029-262100-
NORTHWEST ARKANSAS

CITY           SKY/WX    TMP DP  RH WIND       PRES   REMARKS
FAYETTEVILLE   CLOUDY    51  26  37 SE8       29.96F
FORT SMITH     MOSUNNY   58  25  28 SE12      29.96F
HARRISON       CLOUDY    49  24  37 E9        30.00F
BENTONVILLE    CLOUDY    52  25  35 SE13      29.96F
ROGERS         CLOUDY    48  28  46 E7        29.97F
SILOAM SPGS    CLOUDY    52  27  37 SE10      29.95F
HIGHFILL       CLOUDY    51  25  36 SE13      29.95F
SPRINGDALE     CLOUDY    52  25  35 SE12G17   29.98F
$$

ARZ004-005-016-262100-
NORTH CENTRAL ARKANSAS

CITY           SKY/WX    TMP DP  RH WIND       PRES   REMARKS
BATESVILLE     CLOUDY    54  21  28 S9        30.09S
FLIPPIN        CLOUDY    52  23  32 E8        30.02F
MTN HOME       CLOUDY    49  23  36 SE6       30.05F
$$

ARZ040-041-262100-
WEST CENTRAL ARKANSAS

CITY           SKY/WX    TMP DP  RH WIND       PRES   REMARKS
MENA           CLOUDY    55  32  41 SE6       29.98F
MOUNT IDA      PTSUNNY   58  26  29 SE10      29.98F
$$

ARZ009-017-025-026-028-262100-
NORTHEAST ARKANSAS

CITY           SKY/WX    TMP DP  RH WIND       PRES   REMARKS
CORNING        FAIR      54  27  35 SE9       30.11F
JONESBORO      MOSUNNY   55  23  28 SE8G18    30.09F
NEWPORT        SUNNY     56  25  30 S15       30.09F
WALNUT RIDGE   MOSUNNY   54  25  32 SE10      30.09F
BLYTHEVILLE    PTSUNNY   55  19  24 SE10      30.11F
$$

ARZ022-023-033-042-044-262100-
CENTRAL ARKANSAS

CITY           SKY/WX    TMP DP  RH WIND       PRES   REMARKS
LITTLE ROCK    PTSUNNY   57  30  35 SE9G17    30.06F
N LITTLE ROCK    N/A     55  31  41 SE9G18    30.08F
JACKSONVILLE   MOSUNNY   56  31  38 SE10      30.05F
SEARCY         CLOUDY    56  29  35 SE13      30.08F
HOT SPRINGS    CLOUDY    58  25  28 S8        30.02F
RUSSELLVILLE   CLOUDY    54  28  36 E8        30.01F
CLINTON        FAIR      55  27  33 SE12      30.03F
$$

ARZ036-262100-
EAST ARKANSAS

CITY           SKY/WX    TMP DP  RH WIND       PRES   REMARKS
WEST MEMPHIS   SUNNY     58  22  24 S12       30.11F
$$

ARZ050-053-066-070-073-262100-
SOUTHWEST ARKANSAS

CITY           SKY/WX    TMP DP  RH WIND       PRES   REMARKS
ARKADELPHIA    CLOUDY    61  31  32 VRB5      30.03F
CAMDEN         SUNNY     66  19  16 S10       30.02F
TEXARKANA      CLOUDY    60  30  32 S8        30.00F
EL DORADO      MOSUNNY   65  26  23 S9G17     30.02F
DE QUEEN       CLOUDY    57  30  35 SE7       29.96F
$$

ARZ056-057-069-262100-
SOUTHEAST ARKANSAS

CITY           SKY/WX    TMP DP  RH WIND       PRES   REMARKS
PINE BLUFF     SUNNY     59  34  39 E16       30.05F
STUTTGART      PTSUNNY   57  27  30 S15       30.09F
MONTICELLO     PTSUNNY   60  24  25 S8        30.07F

$$






USA.gov is the U.S. government's official web portal to all federal, state and local government web resources and services.